[[{"header":{"parameterUnit":"m.s-1","parameterCategory":1,"la1":30.2991,"la2":30.254,"lo1":-89.0895,"lo2":-89.0444,"dy":0.0017,"dx":0.0017,"nx":28,"ny":28,"refTime":"2023-09-28T09:00:00:Z","depth":0,"parameterNumber":2,"parameterNumberName":"U-component_of_WINDS"},"data":[0,0,0,0,0,0,0,0,0,0,0,0,0,0,0,0,0,0,0,0,0,0,0,0,0,0,0,0,0,0,0,0,0,0,0,0,0,0,0,0,0,0,0,0,0,0,0,0,0,0,0,0,0,0,0,0,0,0,-5.223,-5.223,0,-5.2304,-5.2305,-5.2305,-5.2211,-5.2207,-5.2204,-5.22,-5.2279,-5.2284,-5.2289,0,0,0,0,0,0,0,0,0,0,0,0,0,-5.201,-5.2014,-5.223,-5.2231,-5.2231,-5.2304,-5.2305,-5.2306,-5.2211,-5.2207,-5.2203,-5.2199,-5.2277,-5.2283,-5.229,0,0,0,0,0,0,0,0,0,0,0,0,0,-5.2097,-5.2016,-5.2229,-5.2193,-5.219,-5.2303,-5.2305,-5.2306,-5.2212,-5.2207,-5.2202,-5.2197,-5.2275,-5.2283,-5.2291,-5.2444,0,0,-5.2315,-5.2318,0,0,0,0,0,0,0,0,-5.2092,-5.2105,-5.2197,-5.2196,-5.2193,-5.2242,-5.2256,-5.2352,-5.2213,-5.2204,-5.22,-5.2194,-5.2271,-5.2279,-5.2304,-5.2447,-5.2451,-5.2316,-5.2321,-5.2324,-5.2326,0,0,0,0,0,0,0,-5.2086,-5.2101,-5.2259,-5.2199,-5.2196,-5.2174,-5.2181,-5.2274,-5.2266,-5.2204,-5.2198,-5.2208,-5.2269,-5.2297,-5.2306,-5.2452,-5.2315,-5.2323,-5.2327,-5.2331,-5.2726,-5.2732,0,0,0,0,0,0,-5.2084,-5.2097,-5.2257,-5.2261,-5.2129,-5.2182,-5.219,-5.2232,-5.2265,-5.2264,-5.2212,-5.2203,-5.2286,-5.2296,-5.2308,-5.2491,-5.2324,-5.2331,-5.2336,-5.2721,-5.2728,-5.2734,0,0,0,0,0,0,-5.2079,-5.2099,-5.2254,-5.2177,-5.2195,-5.2191,-5.224,-5.2236,-5.2264,-5.227,-5.2269,-5.2242,-5.2282,-5.2297,-5.2411,-5.2492,-5.2335,-5.2342,-5.2714,-5.2723,-5.2731,-5.2857,0,0,0,0,0,0,-5.2074,-5.2098,-5.2155,-5.2179,-5.22,-5.2355,-5.2245,-5.2241,-5.2278,-5.2267,-5.2298,-5.2298,-5.2279,-5.24,-5.2419,-5.25,-5.2348,-5.2707,-5.2718,-5.2728,-5.2846,-5.2869,-5.2889,0,0,0,0,0,-5.2066,-5.2188,-5.2159,-5.2178,-5.2271,-5.2359,-5.2371,-5.2346,-5.2285,-5.2343,-5.2347,-5.2297,-5.248,-5.2412,-5.2433,-5.2518,-5.2701,-5.2715,-5.2727,-5.2836,-5.2865,-5.2889,0,0,0,0,0,0,-5.2174,-5.219,-5.2158,-5.2291,-5.2325,-5.2343,-5.2416,-5.2377,-5.2429,-5.2417,-5.2385,-5.2393,-5.2515,-5.2527,-5.2451,-5.2669,-5.2581,-5.2598,-5.2656,-5.2683,-5.2705,-5.27,-5.2355,0,0,0,0,0,-5.2213,-5.2283,-5.2293,-5.241,-5.2428,-5.242,-5.2457,-5.2435,-5.2469,-5.2483,-5.2495,-5.2531,-5.2596,-5.264,-5.2701,-5.2847,-5.2854,-5.2916,-5.2938,-5.2955,-5.2972,-5.3052,-5.3081,-5.2776,-5.2776,-5.2776,0,0,-5.2295,-5.2313,-5.2359,-5.2432,-5.2456,-5.253,-5.2432,-5.2514,-5.257,-5.2496,-5.2604,-5.2615,-5.2653,-5.2784,-5.2843,-5.2799,-5.3057,-5.2972,-5.2986,-5.2992,-5.3068,-5.3097,-5.3123,-5.2785,-5.2783,-5.2782,0,0,-5.2482,-5.2502,-5.2602,-5.2628,-5.2664,-5.2658,-5.2682,-5.2707,-5.2712,-5.282,-5.2767,-5.2832,-5.2945,-5.2975,-5.3005,-5.3206,-5.3163,-5.3226,-5.334,-5.3419,-5.3443,-5.3464,-5.3538,-5.3564,-5.3242,-5.3243,-5.3243,0,-5.258,-5.2688,-5.2659,-5.2745,-5.278,-5.2716,-5.2818,-5.2845,-5.29,-5.2926,-5.2876,-5.3018,-5.3038,-5.3177,-5.3226,-5.3252,-5.328,-5.3223,-5.3442,-5.3462,-5.3482,-5.3552,-5.3579,-5.325,-5.3249,-5.3249,-5.3248,0,-5.2808,-5.2884,-5.2961,-5.3015,-5.3059,-5.3153,-5.3138,-5.3186,-5.3161,-5.316,-5.3273,-5.3296,-5.3361,-5.3392,-5.3368,-5.3528,-5.35,-5.3446,-5.3357,-5.3519,-5.3584,-5.3611,-5.3261,-5.3258,-5.3256,-5.3254,0,0,-5.3065,-5.3103,-5.3131,-5.3156,-5.3193,-5.3252,-5.3344,-5.3407,-5.345,-5.349,-5.3568,-5.3666,-5.3617,-5.3651,-5.363,-5.3699,-5.3859,-5.3637,-5.3637,-5.3679,-5.404,-5.4081,-5.4112,-5.383,-5.3835,-5.3839,-5.4037,0,-5.3254,-5.3412,-5.3389,-5.3542,-5.3613,-5.3555,-5.3635,-5.3667,-5.3669,-5.3731,-5.3734,-5.3805,-5.3734,-5.3754,-5.382,-5.3826,-5.3932,-5.3811,-5.3904,-5.3908,-5.3898,-5.4146,-5.419,-5.4375,-5.4062,-5.4067,-5.407,0,-5.3495,-5.3545,-5.3705,-5.3732,-5.3761,-5.3834,-5.3891,-5.395,-5.3986,-5.3983,-5.4022,-5.3989,-5.4083,-5.3992,-5.4122,-5.404,-5.4077,-5.4086,-5.4093,-5.4102,-5.4,-5.4164,-5.4434,-5.4462,-5.4109,-5.4106,-5.4103,0,-5.3669,-5.3776,-5.3886,-5.3909,-5.3943,-5.3996,-5.4013,-5.4043,-5.4083,-5.4133,-5.416,-5.422,-5.4254,-5.4303,-5.4288,-5.4222,-5.4422,-5.4329,-5.4424,-5.4425,-5.447,-5.4467,-5.4751,-5.4491,-5.4491,-5.449,-5.4489,0,-5.3883,-5.3985,-5.3965,-5.4033,-5.4145,-5.4118,-5.423,-5.424,-5.4268,-5.4338,-5.4291,-5.4358,-5.4333,-5.4399,-5.4388,-5.4499,-5.4514,-5.4516,-5.4512,-5.4521,-5.4521,-5.4546,-5.4533,-5.4497,-5.4496,-5.4494,-5.4493,0,-5.4097,-5.4088,-5.4205,-5.4227,-5.4235,-5.4317,-5.4337,-5.4402,-5.4401,-5.4491,-5.451,-5.4509,-5.4585,-5.4574,-5.4658,-5.4651,-5.479,-5.4769,-5.4778,-5.4774,-5.487,-5.4862,-5.5181,-5.5223,-5.4934,-5.4937,-5.4939,0,-5.4235,-5.4311,-5.4343,-5.4386,-5.4407,-5.4477,-5.4518,-5.4494,-5.4539,-5.4587,-5.4647,-5.4718,-5.4774,-5.4898,-5.4905,-5.497,-5.4952,-5.506,-5.4962,-5.4969,-5.4956,-5.4953,-5.4961,-5.508,-5.5083,-5.5085,-5.5088,0,-5.4482,-5.4474,-5.4534,-5.4594,-5.4644,-5.469,-5.4731,-5.477,-5.475,-5.4804,-5.488,-5.4924,-5.501,-5.5082,-5.5144,-5.5162,-5.5124,-5.5118,-5.5144,-5.5155,-5.5157,-5.5159,-5.4832,-5.5111,-5.5109,-5.5107,-5.5106,-5.5105,-5.4663,-5.4729,-5.4762,-5.4831,-5.486,-5.49,-5.4963,-5.497,-5.5033,-5.5101,-5.5083,-5.5171,-5.5207,-5.5285,-5.531,-5.5379,-5.534,-5.5377,-5.5387,-5.5397,-5.5409,-5.5145,-5.539,-5.539,-5.5389,-5.5388,-5.5388,0,-5.4908,-5.4927,-5.4991,-5.5051,-5.5106,-5.5063,-5.5107,-5.5157,-5.5234,-5.527,-5.5326,-5.5416,-5.5486,-5.55,-5.5567,-5.562,-5.5604,-5.5639,-5.5636,-5.5641,-5.5439,-5.5411,-5.5651,-5.5651,-5.5651,-5.5651,-5.5651,-5.5651,-5.5043,-5.5153,-5.5149,-5.5274,-5.5292,-5.5377,-5.5406,-5.5443,-5.5472,-5.5574,-5.5632,-5.564,-5.5668,-5.5738,-5.5801,-5.5803,-5.5831,-5.5874,-5.5869,-5.5681,-5.5655,-5.563,-5.5603,-5.588,-5.588,-5.6065,-5.6067,-5.6068]},{"header":{"parameterUnit":"m.s-1","parameterCategory":1,"la1":30.2991,"la2":30.254,"lo1":-89.0895,"lo2":-89.0444,"dy":0.0017,"dx":0.0017,"nx":28,"ny":28,"refTime":"2023-09-28T09:00:00:Z","depth":0,"parameterNumber":3,"parameterNumberName":"V-component_of_WINDS"},"data":[0,0,0,0,0,0,0,0,0,0,0,0,0,0,0,0,0,0,0,0,0,0,0,0,0,0,0,0,0,0,0,0,0,0,0,0,0,0,0,0,0,0,0,0,0,0,0,0,0,0,0,0,0,0,0,0,0,0,-1.6287,-1.6287,0,-1.6288,-1.6288,-1.6288,-1.6244,-1.6242,-1.6241,-1.624,-1.6242,-1.6243,-1.6245,0,0,0,0,0,0,0,0,0,0,0,0,0,-1.6247,-1.6248,-1.6287,-1.6287,-1.6287,-1.6288,-1.6288,-1.6288,-1.6244,-1.6242,-1.6241,-1.624,-1.6242,-1.6243,-1.6245,0,0,0,0,0,0,0,0,0,0,0,0,0,-1.6258,-1.6249,-1.6287,-1.6265,-1.6263,-1.6288,-1.6288,-1.6288,-1.6244,-1.6242,-1.6241,-1.6239,-1.6241,-1.6243,-1.6245,-1.6291,0,0,-1.625,-1.6251,0,0,0,0,0,0,0,0,-1.6258,-1.626,-1.6268,-1.6267,-1.6265,-1.6264,-1.6275,-1.6289,-1.6245,-1.6251,-1.624,-1.6238,-1.6251,-1.6252,-1.6256,-1.6291,-1.6291,-1.625,-1.6251,-1.6252,-1.6253,0,0,0,0,0,0,0,-1.6257,-1.6259,-1.6288,-1.6269,-1.6266,-1.6255,-1.6255,-1.6277,-1.6261,-1.6251,-1.6247,-1.6248,-1.625,-1.6254,-1.6256,-1.6291,-1.625,-1.6252,-1.6253,-1.6254,-1.6364,-1.6365,0,0,0,0,0,0,-1.6259,-1.6259,-1.6287,-1.6288,-1.6257,-1.6257,-1.6257,-1.6266,-1.6261,-1.6258,-1.625,-1.6246,-1.6252,-1.6254,-1.6256,-1.6309,-1.6252,-1.6254,-1.6255,-1.6362,-1.6364,-1.6366,0,0,0,0,0,0,-1.6258,-1.6262,-1.6287,-1.6272,-1.6275,-1.626,-1.627,-1.6267,-1.6272,-1.626,-1.6257,-1.6257,-1.6251,-1.6253,-1.6282,-1.6308,-1.6254,-1.6256,-1.636,-1.6363,-1.6365,-1.6416,0,0,0,0,0,0,-1.6257,-1.6262,-1.628,-1.6273,-1.6276,-1.6314,-1.6272,-1.6268,-1.6275,-1.627,-1.6266,-1.6264,-1.625,-1.628,-1.6284,-1.631,-1.6257,-1.6357,-1.6361,-1.6364,-1.6412,-1.642,-1.6428,0,0,0,0,0,-1.6256,-1.6294,-1.6281,-1.6284,-1.6297,-1.6316,-1.6317,-1.63,-1.6277,-1.6294,-1.6287,-1.6264,-1.6305,-1.6283,-1.6288,-1.6314,-1.6355,-1.636,-1.6364,-1.6409,-1.6419,-1.6427,0,0,0,0,0,0,-1.6305,-1.6293,-1.6278,-1.6315,-1.6317,-1.6308,-1.633,-1.6311,-1.6319,-1.6315,-1.6292,-1.6292,-1.6325,-1.6322,-1.6299,-1.6358,-1.6326,-1.6331,-1.6359,-1.6368,-1.6376,-1.6376,-1.6259,0,0,0,0,0,-1.632,-1.6336,-1.6325,-1.6359,-1.636,-1.6345,-1.6352,-1.6338,-1.6339,-1.634,-1.6334,-1.6337,-1.6349,-1.6359,-1.637,-1.6411,-1.641,-1.6432,-1.6439,-1.6446,-1.6451,-1.6472,-1.6481,-1.638,-1.638,-1.638,0,0,-1.6352,-1.6347,-1.6359,-1.6368,-1.6368,-1.6385,-1.6346,-1.6366,-1.6378,-1.6343,-1.637,-1.6366,-1.6367,-1.6402,-1.6417,-1.6401,-1.6478,-1.6451,-1.6456,-1.6458,-1.6477,-1.6487,-1.6495,-1.6383,-1.6382,-1.6382,0,0,-1.6417,-1.6416,-1.6443,-1.6443,-1.6443,-1.6432,-1.6439,-1.6433,-1.6429,-1.6455,-1.6429,-1.6444,-1.6467,-1.6468,-1.6472,-1.6537,-1.6517,-1.6541,-1.6582,-1.6602,-1.661,-1.6617,-1.664,-1.6648,-1.6546,-1.6546,-1.6546,0,-1.6457,-1.6481,-1.646,-1.6481,-1.6486,-1.6454,-1.6482,-1.6483,-1.6487,-1.6491,-1.6473,-1.65,-1.6498,-1.6533,-1.6549,-1.6553,-1.656,-1.6542,-1.6611,-1.6617,-1.6624,-1.6645,-1.6654,-1.6549,-1.6549,-1.6549,-1.6548,0,-1.6529,-1.6546,-1.6568,-1.6571,-1.6579,-1.6603,-1.6586,-1.6596,-1.6581,-1.6573,-1.66,-1.6596,-1.6606,-1.6613,-1.6599,-1.6646,-1.6636,-1.6614,-1.6582,-1.6637,-1.6656,-1.6664,-1.6553,-1.6552,-1.6552,-1.6551,0,0,-1.6626,-1.6617,-1.6625,-1.6626,-1.6623,-1.6636,-1.6658,-1.6667,-1.6676,-1.6679,-1.6698,-1.6717,-1.6697,-1.6701,-1.6687,-1.6705,-1.6756,-1.6681,-1.6681,-1.6695,-1.6807,-1.6823,-1.6833,-1.6743,-1.6744,-1.6745,-1.6807,0,-1.6689,-1.6727,-1.6709,-1.6749,-1.6764,-1.6734,-1.6753,-1.6753,-1.6746,-1.6758,-1.6749,-1.6763,-1.6736,-1.6738,-1.6755,-1.6747,-1.6778,-1.6742,-1.676,-1.676,-1.676,-1.6843,-1.686,-1.6919,-1.6814,-1.6816,-1.6817,0,-1.6769,-1.6774,-1.6816,-1.6809,-1.6814,-1.6832,-1.6838,-1.685,-1.6849,-1.6843,-1.6847,-1.6828,-1.685,-1.6817,-1.6846,-1.6822,-1.6828,-1.6825,-1.6827,-1.6828,-1.6792,-1.6846,-1.6937,-1.6945,-1.6829,-1.6828,-1.6827,0,-1.6835,-1.6853,-1.688,-1.6881,-1.6874,-1.6887,-1.6885,-1.6882,-1.6888,-1.6894,-1.6898,-1.6906,-1.6911,-1.6917,-1.6901,-1.6879,-1.6933,-1.6899,-1.6927,-1.6928,-1.694,-1.694,-1.7033,-1.6945,-1.6944,-1.6944,-1.6944,0,-1.6908,-1.6934,-1.6909,-1.6926,-1.6954,-1.6933,-1.6962,-1.6956,-1.6954,-1.6969,-1.6943,-1.6958,-1.6936,-1.6948,-1.6936,-1.6961,-1.6964,-1.6959,-1.6955,-1.6961,-1.6962,-1.6965,-1.696,-1.6947,-1.6946,-1.6946,-1.6945,0,-1.6987,-1.6971,-1.6998,-1.6988,-1.6987,-1.7008,-1.7,-1.7015,-1.7005,-1.7024,-1.7027,-1.7012,-1.7025,-1.7009,-1.7022,-1.7013,-1.7048,-1.7039,-1.7048,-1.7045,-1.7075,-1.7072,-1.7173,-1.7185,-1.7089,-1.709,-1.7091,0,-1.7034,-1.7053,-1.7045,-1.7053,-1.7052,-1.7065,-1.7071,-1.705,-1.7057,-1.7057,-1.7072,-1.7083,-1.709,-1.7113,-1.7103,-1.7112,-1.7102,-1.7137,-1.7104,-1.7109,-1.7102,-1.7101,-1.7103,-1.7144,-1.7145,-1.7146,-1.7147,0,-1.7119,-1.711,-1.7119,-1.7126,-1.7133,-1.7138,-1.714,-1.7148,-1.7126,-1.7135,-1.7148,-1.7154,-1.7166,-1.7177,-1.7183,-1.718,-1.716,-1.7157,-1.7164,-1.717,-1.7175,-1.7172,-1.7067,-1.7155,-1.7154,-1.7154,-1.7153,-1.7153,-1.7183,-1.7199,-1.7195,-1.7206,-1.7205,-1.7208,-1.7221,-1.7212,-1.7222,-1.723,-1.7217,-1.7233,-1.7231,-1.7237,-1.7237,-1.7249,-1.7234,-1.7244,-1.7247,-1.725,-1.7254,-1.7173,-1.725,-1.725,-1.725,-1.7249,-1.7249,0,-1.7267,-1.7263,-1.7273,-1.7276,-1.7285,-1.7264,-1.7266,-1.7274,-1.7288,-1.7288,-1.7295,-1.731,-1.732,-1.7311,-1.7319,-1.7331,-1.7322,-1.7334,-1.7332,-1.7332,-1.7267,-1.726,-1.7341,-1.7341,-1.7341,-1.7341,-1.7341,-1.7341,-1.7311,-1.7336,-1.7327,-1.7351,-1.7347,-1.7361,-1.7364,-1.7366,-1.7365,-1.7382,-1.739,-1.7384,-1.738,-1.7387,-1.7396,-1.7393,-1.7397,-1.7412,-1.7406,-1.7346,-1.7337,-1.7328,-1.7321,-1.7414,-1.7414,-1.747,-1.747,-1.7471]}]]